User: anonymous
Location: Sperry Observatory
(40.6664°N, 74.3236°W)
Time: 13:20:22
(UTC-04:00)
Language:

JAS-2 - Orbit

View from above orbital plane
View from above orbital plane
View from above satellite
View from above satellite

Ground track
Ground track

The orbit data is extracted from the following two-line orbital elements,

1 24278U 96046B   14234.49204384 -.00000003  00000-0  29702-4 0  4461
2 24278 098.5136 239.2017 0351530 125.5558 355.3570 13.53027640889632
Epoch (UTC): 22 August 2014 11:48:32
Eccentricity: 0.0351530
inclination: 98.5136°
perigee height: 799 km
apogee height: 1322 km
right ascension of ascending node: 239.2017°
argument of perigee: 125.5558°
revolutions per day: 13.53027640
mean anomaly at epoch: 355.3570°
orbit number at epoch: 88963

The dashed part of the orbit path shows where the satellite is in the earth's shadow,  

DLR